DW2150 Weather Reports


time (UTC)temp
F
wind
direction
speed
knots
gust
knots
rain 1hr
in
rain 24hr
in
rain mn
in
humidity
%
barometer
mb
20260507065058 73 242 0.9 4.3 0.00 0.00 0.00 90 1012.5
20260507064556 73 42 1.7 4.3 0.00 0.00 0.00 90 1012.5
20260507064052 73 1 1.7 4.3 0.00 0.00 0.00 90 1012.5
20260507063515 73 74 0.9 2.6 0.00 0.00 0.00 90 1012.5
20260507063012 74 50 0.9 3.5 0.00 0.00 0.00 90 1012.5
20260507062407 74 273 0.9 4.3 0.00 0.00 0.00 90 1012.5
20260507061904 74 286 0.9 4.3 0.00 0.00 0.00 90 1012.5
20260507061400 74 68 1.7 4.3 0.00 0.00 0.00 90 1012.5
20260507060857 74 52 1.7 4.3 0.00 0.00 0.00 90 1012.5
20260507060354 74 99 0.9 4.3 0.00 0.00 0.00 90 1012.2
20260507055851 74 52 1.7 4.3 0.00 0.00 0.00 90 1012.2
20260507055245 74 120 0.9 3.5 0.00 0.00 0.00 90 1012.2
20260507054742 74 53 0.9 3.5 0.00 0.00 0.00 90 1012.2
20260507054238 74 57 0.9 2.6 0.00 0.00 0.00 90 1012.2
20260507053704 74 76 0.9 4.3 0.00 0.00 0.00 90 1012.5
20260507053201 75 258 1.7 4.3 0.00 0.00 0.00 90 1012.5
20260507052658 75 55 0.9 4.3 0.00 0.00 0.00 90 1012.5
20260507052123 75 25 0.9 4.3 0.00 0.00 0.00 91 1012.2
20260507051621 75 23 0.9 4.3 0.00 0.00 0.00 91 1012.2
20260507051118 75 73 1.7 4.3 0.00 0.00 0.00 91 1012.2
20260507050543 75 238 0.9 4.3 0.00 0.00 0.00 91 1012.5
20260507050020 75 298 0.9 7.8 0.00 0.00 0.00 91 1012.2
20260507045517 75 255 0.9 7.8 0.00 0.00 0.00 91 1012.2
20260507045014 75 359 1.7 7.8 0.00 0.00 0.00 91 1012.2
20260507044511 75 290 0.9 7.8 0.00 0.00 0.00 91 1012.2
20260507044009 76 240 1.7 7.0 0.00 0.00 0.00 91 1012.5
20260507043505 76 261 1.7 7.0 0.00 0.00 0.00 91 1012.5
20260507043002 77 278 1.7 7.0 0.00 0.00 0.00 92 1012.5
20260507042428 78 245 1.7 7.0 0.00 0.00 0.00 92 1012.2
20260507041925 78 286 1.7 2.6 0.00 0.00 0.00 93 1012.2
20260507041351 78 310 0.0 0.0 0.00 0.00 0.00 93 1011.9
20260507040848 78 310 0.0 0.0 0.00 0.00 0.00 93 1011.9
20260507040252 78 310 0.0 0.0 0.00 0.00 0.00 93 1011.9
20260507035716 78 310 0.0 0.0 0.00 0.00 0.00 93 1011.9
20260507035214 78 310 0.0 0.0 0.00 0.00 0.00 93 1011.9
20260507034711 78 310 0.0 0.0 0.00 0.00 0.00 93 1011.9
20260507034208 78 310 0.0 0.0 0.00 0.00 0.00 93 1011.9
20260507033705 78 310 0.0 0.0 0.00 0.00 0.00 93 1011.5
20260507033131 78 311 0.0 0.0 0.00 0.00 0.00 93 1011.5
20260507032627 78 310 0.0 0.0 0.00 0.00 0.00 93 1011.5
20260507032053 78 311 0.0 0.0 0.00 0.00 0.00 93 1011.5
20260507031550 78 311 0.0 0.0 0.00 0.00 0.00 93 1011.2
20260507031016 78 310 0.0 0.9 0.00 0.00 0.00 93 1011.2
20260507030513 78 311 0.0 0.9 0.00 0.00 0.00 93 1010.8
20260507030010 78 310 0.0 0.9 0.00 0.00 0.00 93 1010.8
20260507025507 78 311 0.0 0.9 0.00 0.00 0.00 93 1010.8
20260507025003 78 310 0.0 0.0 0.00 0.00 0.00 93 1010.8
20260507024429 78 310 0.0 0.0 0.00 0.00 0.00 93 1010.8
20260507023926 78 310 0.0 0.0 0.00 0.00 0.00 93 1010.5
20260507023352 78 310 0.0 0.0 0.00 0.00 0.00 93 1010.8
20260507022848 78 311 0.0 0.0 0.00 0.00 0.00 93 1010.5
20260507022345 78 311 0.0 0.9 0.00 0.00 0.00 92 1010.5
20260507021843 78 311 0.0 0.9 0.00 0.00 0.00 92 1010.5
20260507021250 78 311 0.0 0.9 0.00 0.00 0.00 92 1010.5
20260507020747 78 267 0.0 0.0 0.00 0.00 0.00 92 1010.5
20260507020212 78 267 0.0 0.0 0.00 0.00 0.00 92 1010.2
20260507015650 78 267 0.0 0.0 0.00 0.00 0.00 92 1010.2
20260507015146 78 267 0.0 0.0 0.00 0.00 0.00 92 1010.2
20260507014629 79 267 0.0 0.9 0.00 0.00 0.00 92 1009.8
20260507014126 79 267 0.0 0.9 0.00 0.00 0.00 92 1009.8
20260507013552 79 267 0.0 0.9 0.00 0.00 0.00 92 1009.8
20260507013018 79 267 0.0 0.0 0.00 0.00 0.00 91 1009.8
20260507012459 79 267 0.0 0.0 0.00 0.00 0.00 91 1009.8
20260507011956 79 267 0.0 0.0 0.00 0.00 0.00 91 1009.8
20260507011419 79 267 0.0 0.0 0.00 0.00 0.00 91 1009.5
20260507010915 79 267 0.0 0.0 0.00 0.00 0.00 91 1009.5
20260507010323 80 268 0.0 0.0 0.00 0.00 0.00 91 1009.5
20260507005820 80 268 0.0 0.0 0.00 0.00 0.00 91 1009.5
20260507005317 80 268 0.0 0.0 0.00 0.00 0.00 91 1009.5
20260507004814 80 268 0.0 0.0 0.00 0.00 0.00 91 1009.5
20260507004310 80 268 0.0 0.0 0.00 0.00 0.00 91 1009.5
20260507003807 80 268 0.0 0.0 0.00 0.00 0.00 91 1009.5
20260507003303 80 268 0.0 0.0 0.00 0.00 0.00 90 1009.5
20260507002801 80 268 0.0 0.0 0.00 0.00 0.00 90 1009.1
20260507002258 80 268 0.0 0.0 0.00 0.00 0.00 90 1009.1
20260507001755 81 268 0.0 0.0 0.00 0.00 0.00 90 1009.1
20260507001221 81 268 0.0 0.0 0.00 0.00 0.00 90 1009.1
20260507000717 81 268 0.0 0.0 0.00 0.00 0.00 90 1009.1
20260507000143 81 268 0.0 0.0 0.00 0.00 0.00 90 1009.1
20260506235639 81 268 0.0 0.0 0.00 0.00 0.00 90 1009.1
20260506235103 81 268 0.0 0.0 0.00 0.00 0.00 90 1009.1
20260506234600 81 268 0.0 0.0 0.00 0.00 0.00 90 1008.8
20260506234057 81 268 0.0 0.0 0.00 0.00 0.00 89 1009.1
20260506233553 81 268 0.0 0.9 0.00 0.00 0.00 89 1009.1
20260506233050 81 268 0.0 0.9 0.00 0.00 0.00 89 1009.1
20260506232547 82 268 0.0 0.9 0.00 0.00 0.00 89 1009.1
20260506232044 82 268 0.0 0.9 0.00 0.00 0.00 89 1009.1
20260506231522 82 269 0.0 1.7 0.00 0.00 0.00 89 1008.8
20260506231019 82 268 0.0 1.7 0.00 0.00 0.00 89 1008.8
20260506230500 82 268 0.9 1.7 0.00 0.00 0.00 89 1008.8
20260506225957 82 275 0.9 1.7 0.00 0.00 0.00 89 1008.8
20260506225439 82 276 0.0 1.7 0.00 0.00 0.00 89 1008.5
20260506224935 82 252 0.0 0.9 0.00 0.00 0.00 89 1008.8
20260506224432 82 252 0.9 2.6 0.00 0.00 0.00 89 1008.5
20260506223910 82 230 0.0 2.6 0.00 0.00 0.00 89 1008.8
20260506223406 82 244 0.0 2.6 0.00 0.00 0.00 89 1008.8
20260506222903 82 162 0.9 0.9 0.00 0.00 0.00 89 1008.8
20260506222400 82 162 0.0 0.9 0.00 0.00 0.00 89 1008.8
20260506221856 82 162 0.0 0.9 0.00 0.00 0.00 89 1008.8
20260506221353 82 162 0.0 1.7 0.00 0.00 0.00 89 1008.8
20260506220818 82 162 0.0 1.7 0.00 0.00 0.00 89 1008.8
20260506220315 82 162 0.0 2.6 0.00 0.00 0.00 88 1008.8
20260506215812 82 166 0.9 2.6 0.00 0.00 0.00 88 1008.8
20260506215309 83 317 0.9 2.6 0.00 0.00 0.00 88 1008.8
20260506214805 83 317 0.9 2.6 0.00 0.00 0.00 87 1008.8
20260506214301 84 317 0.9 1.7 0.00 0.00 0.00 87 1008.8
20260506213727 84 319 0.9 1.7 0.00 0.00 0.00 87 1008.8
20260506213224 84 322 0.9 1.7 0.00 0.00 0.00 87 1008.8
20260506212721 85 329 0.9 2.6 0.00 0.00 0.00 86 1008.8
20260506212147 85 5 0.9 2.6 0.00 0.00 0.00 86 1008.8
20260506211451 86 7 0.9 2.6 0.00 0.00 0.00 86 1008.8
20260506210948 85 314 0.9 2.6 0.00 0.00 0.00 87 1008.8
20260506210445 85 319 0.9 2.6 0.00 0.00 0.00 87 1008.8
20260506205942 85 126 0.9 1.7 0.00 0.00 0.00 87 1008.8
20260506205439 84 109 0.9 1.7 0.00 0.00 0.00 88 1008.8
20260506204936 84 330 0.9 1.7 0.00 0.00 0.00 88 1008.8
20260506204402 84 58 0.9 1.7 0.00 0.00 0.00 88 1009.1
20260506203859 84 64 0.9 2.6 0.00 0.00 0.00 87 1009.1
20260506203356 84 85 0.9 2.6 0.00 0.00 0.00 88 1009.1
20260506202853 84 85 0.9 2.6 0.00 0.00 0.00 88 1009.1
20260506202318 84 56 1.7 2.6 0.00 0.00 0.00 88 1009.1
20260506201815 83 123 0.9 1.7 0.00 0.00 0.00 88 1009.5
20260506201312 83 290 0.9 1.7 0.00 0.00 0.00 89 1009.5
20260506200750 83 173 0.9 1.7 0.00 0.00 0.00 88 1009.5
20260506200247 83 302 0.9 1.7 0.00 0.00 0.00 89 1009.5
20260506195725 83 301 0.0 1.7 0.00 0.00 0.00 88 1009.5
20260506195048 83 302 0.9 1.7 0.00 0.00 0.00 89 1009.5
20260506194443 83 170 0.9 1.7 0.00 0.00 0.00 89 1009.8
20260506193940 83 311 0.9 1.7 0.00 0.00 0.00 89 1009.8
20260506193437 83 311 0.9 1.7 0.00 0.00 0.00 89 1009.8
20260506192934 83 312 0.0 0.9 0.00 0.00 0.00 89 1009.8
20260506192431 82 312 0.0 0.9 0.00 0.00 0.00 90 1009.8
20260506191928 82 312 0.9 0.9 0.00 0.00 0.00 90 1010.2
20260506191323 82 300 0.0 0.9 0.00 0.00 0.00 90 1010.2
20260506190820 82 300 0.9 0.9 0.00 0.00 0.00 90 1010.2
20260506190317 82 300 0.0 0.9 0.00 0.00 0.00 90 1010.2
20260506185742 82 300 0.0 0.9 0.00 0.00 0.00 91 1010.2
20260506185239 82 300 0.0 0.0 0.00 0.00 0.00 90 1010.2
20260506184736 82 300 0.0 0.0 0.00 0.00 0.00 90 1010.2
20260506184233 82 300 0.0 0.9 0.00 0.00 0.00 90 1010.2
20260506183659 82 300 0.0 0.9 0.00 0.00 0.00 90 1010.2
20260506183155 82 300 0.0 0.9 0.00 0.00 0.00 90 1010.5
20260506182652 82 300 0.9 0.9 0.00 0.00 0.00 90 1010.5
20260506182149 82 299 0.9 1.7 0.00 0.00 0.00 89 1010.5
20260506181645 82 299 0.0 1.7 0.00 0.00 0.00 90 1010.5
20260506181142 82 319 0.9 1.7 0.00 0.00 0.00 89 1010.8
20260506180620 82 30 0.0 0.9 0.00 0.00 0.00 89 1010.8
20260506180117 82 30 0.9 1.7 0.00 0.00 0.00 89 1010.8
20260506175607 82 28 0.0 1.7 0.00 0.00 0.00 89 1010.5
20260506175103 82 28 0.0 1.7 0.00 0.00 0.00 89 1010.8
20260506174600 82 11 0.9 0.9 0.00 0.00 0.00 90 1010.5
20260506174026 82 11 0.0 0.9 0.00 0.00 0.00 90 1010.8
20260506173522 81 140 0.9 1.7 0.00 0.00 0.00 91 1010.8
20260506173019 81 182 0.0 1.7 0.00 0.00 0.00 90 1010.8
20260506172515 81 182 0.0 1.7 0.00 0.00 0.00 91 1011.2
20260506172004 81 20 0.0 0.0 0.00 0.00 0.00 91 1010.8
20260506171501 81 38 0.0 0.0 0.00 0.00 0.00 91 1011.2
20260506170939 81 48 0.0 0.0 0.00 0.00 0.00 91 1011.2
20260506170436 81 48 0.0 0.0 0.00 0.00 0.00 91 1011.2
20260506165932 81 48 0.0 0.0 0.00 0.00 0.00 92 1011.2
20260506165429 81 48 0.0 0.0 0.00 0.00 0.00 92 1011.2
20260506164925 80 48 0.0 0.0 0.00 0.00 0.00 92 1011.2
20260506164422 80 48 0.0 0.0 0.00 0.00 0.00 93 1011.2
20260506163915 80 48 0.0 0.0 0.00 0.00 0.00 93 1011.2
20260506163412 79 355 0.0 0.0 0.00 0.00 0.00 93 1011.2
20260506162909 79 355 0.0 0.0 0.00 0.00 0.00 93 1011.2
20260506162404 79 355 0.0 0.0 0.00 0.00 0.00 94 1011.2
20260506161811 79 355 0.0 0.0 0.00 0.00 0.00 94 1010.8
20260506161247 79 355 0.0 0.0 0.00 0.00 0.00 94 1010.8
20260506160742 79 355 0.0 0.0 0.00 0.00 0.00 93 1011.2
20260506160239 79 355 0.0 0.0 0.00 0.00 0.00 93 1011.2
20260506155655 79 355 0.0 0.0 0.00 0.00 0.00 93 1010.8
20260506155132 79 355 0.0 0.0 0.00 0.00 0.00 94 1010.8
20260506154629 78 355 0.0 0.0 0.00 0.00 0.00 94 1010.5
20260506154126 78 360 0.0 0.0 0.00 0.00 0.00 94 1010.5
20260506153623 78 333 0.0 0.0 0.00 0.00 0.00 93 1010.5
20260506153120 78 333 0.0 0.0 0.00 0.00 0.00 93 1010.5
20260506152616 78 333 0.0 0.0 0.00 0.00 0.00 93 1010.5
20260506152042 78 329 0.0 0.0 0.00 0.00 0.00 94 1010.5
20260506151538 78 329 0.0 0.0 0.00 0.00 0.00 94 1010.5
20260506151035 78 329 0.0 0.0 0.00 0.00 0.00 94 1010.5
20260506150532 78 329 0.0 0.0 0.00 0.00 0.00 94 1010.2
20260506150028 78 329 0.0 0.0 0.00 0.00 0.00 94 1010.2
20260506145526 78 328 0.0 0.0 0.00 0.00 0.00 94 1010.2
20260506145023 78 328 0.0 0.0 0.00 0.00 0.00 94 1010.2
20260506144519 78 328 0.0 0.0 0.00 0.00 0.00 94 1009.8
20260506144011 78 328 0.0 0.0 0.00 0.00 0.00 94 1009.8
20260506143508 78 328 0.0 0.0 0.00 0.00 0.00 94 1009.8
20260506143004 78 329 0.0 0.0 0.00 0.00 0.00 94 1010.2
20260506142459 78 328 0.0 0.0 0.00 0.00 0.00 94 1010.2
20260506141952 78 329 0.0 0.0 0.00 0.00 0.00 94 1010.2
20260506141447 78 329 0.0 0.0 0.00 0.00 0.00 94 1010.2
20260506140943 78 329 0.0 0.0 0.00 0.00 0.00 94 1010.2
20260506140438 78 328 0.0 0.0 0.00 0.00 0.00 95 1010.2
20260506135901 78 328 0.0 0.0 0.00 0.00 0.00 95 1010.2
20260506135357 78 328 0.0 0.0 0.00 0.00 0.00 95 1010.2
20260506134820 77 328 0.0 0.0 0.00 0.00 0.00 95 1010.2
20260506134245 77 328 0.0 0.0 0.00 0.00 0.00 95 1010.2
20260506133741 77 328 0.0 0.0 0.00 0.00 0.00 95 1010.2
20260506133205 77 328 0.0 0.0 0.00 0.00 0.00 95 1010.2
20260506132700 77 328 0.0 0.0 0.00 0.00 0.00 95 1010.2
20260506132126 77 328 0.0 0.0 0.00 0.00 0.00 95 1010.2
20260506131621 77 329 0.0 0.0 0.00 0.00 0.00 95 1010.5
20260506131059 77 328 0.0 0.0 0.00 0.00 0.00 95 1010.2
20260506130533 77 328 0.0 0.0 0.00 0.00 0.00 95 1010.2
20260506130029 76 328 0.0 0.0 0.00 0.00 0.00 95 1010.2
20260506125453 76 328 0.0 0.0 0.00 0.00 0.00 95 1010.2
20260506124949 76 328 0.0 0.0 0.00 0.00 0.00 95 1010.2
20260506124445 76 329 0.0 0.0 0.00 0.00 0.00 95 1010.2
20260506123941 76 328 0.0 0.0 0.00 0.00 0.00 95 1010.2
20260506123436 76 328 0.0 0.0 0.00 0.00 0.00 95 1010.2
20260506122931 76 328 0.0 0.0 0.00 0.00 0.00 95 1010.2
20260506121848 76 329 0.0 0.0 0.00 0.00 0.00 95 1009.8
20260506121314 76 328 0.0 0.0 0.00 0.00 0.00 95 1009.8
20260506120752 76 328 0.0 0.0 0.00 0.00 0.00 95 1009.8
20260506120249 76 327 0.0 0.0 0.00 0.00 0.00 95 1009.8
20260506115746 76 333 0.0 0.0 0.00 0.00 0.00 95 1009.8
20260506115243 76 333 0.0 0.0 0.00 0.00 0.00 95 1009.5
20260506114739 76 333 0.0 0.0 0.00 0.00 0.00 95 1009.5
20260506114236 76 333 0.0 0.0 0.00 0.00 0.00 95 1009.5
20260506113733 76 333 0.0 0.0 0.00 0.00 0.00 95 1009.5
20260506113230 76 333 0.0 0.0 0.00 0.00 0.00 95 1009.5
20260506112727 76 333 0.0 0.0 0.00 0.00 0.00 95 1009.1
20260506112223 76 333 0.0 0.0 0.00 0.00 0.00 95 1009.1
20260506111720 76 333 0.0 0.0 0.00 0.00 0.00 95 1009.1
20260506111202 76 333 0.0 0.0 0.00 0.00 0.00 95 1009.1
20260506110659 76 333 0.0 0.0 0.00 0.00 0.00 95 1009.1
20260506110137 76 333 0.0 0.0 0.00 0.00 0.00 94 1009.1
20260506105612 76 333 0.0 0.0 0.00 0.00 0.00 95 1009.1
20260506105109 76 333 0.0 0.0 0.00 0.00 0.00 95 1009.1
20260506104535 76 333 0.0 0.0 0.00 0.00 0.00 95 1009.1
20260506104031 76 333 0.0 0.0 0.00 0.00 0.00 95 1009.1
20260506103528 75 15 0.0 0.0 0.00 0.00 0.00 94 1009.1
20260506103025 75 15 0.0 0.0 0.00 0.00 0.00 94 1009.1
20260506102522 76 15 0.0 0.0 0.00 0.00 0.00 94 1009.1
20260506102019 76 15 0.0 0.0 0.00 0.00 0.00 94 1009.1
20260506101516 76 15 0.0 0.0 0.00 0.00 0.00 94 1008.8
20260506101013 76 15 0.0 0.0 0.00 0.00 0.00 94 1008.8
20260506100510 76 15 0.0 0.0 0.00 0.00 0.00 94 1008.8
20260506095905 76 340 0.0 0.0 0.00 0.00 0.00 94 1008.8
20260506095402 76 346 0.0 0.0 0.00 0.00 0.00 94 1008.8
20260506094859 75 5 0.0 0.0 0.00 0.00 0.00 94 1008.8
20260506094355 75 26 0.0 0.0 0.00 0.00 0.00 94 1008.8
20260506093852 76 26 0.0 0.0 0.00 0.00 0.00 94 1008.8
20260506093349 76 26 0.0 0.0 0.00 0.00 0.00 94 1008.8
20260506092814 76 26 0.0 0.0 0.00 0.00 0.00 94 1009.1
20260506092310 76 26 0.0 0.0 0.00 0.00 0.00 94 1008.8
20260506091807 76 26 0.0 0.0 0.00 0.00 0.00 94 1008.8
20260506091304 76 26 0.0 0.0 0.00 0.00 0.00 94 1009.1
20260506090800 76 26 0.0 0.0 0.00 0.00 0.00 94 1009.1
20260506090257 76 26 0.0 0.0 0.00 0.00 0.00 94 1008.8
20260506085754 76 26 0.0 0.0 0.00 0.00 0.00 94 1009.1
20260506085220 76 26 0.0 0.0 0.00 0.00 0.00 94 1009.1
20260506084645 76 26 0.0 0.0 0.00 0.00 0.00 94 1009.1
20260506084142 76 26 0.0 0.0 0.00 0.00 0.00 94 1009.1
20260506083638 76 53 0.0 0.0 0.00 0.00 0.00 94 1009.1
20260506083135 76 360 0.0 0.0 0.00 0.00 0.00 94 1009.1
20260506082632 76 360 0.0 0.0 0.00 0.00 0.00 94 1009.1
20260506082129 76 360 0.0 0.0 0.00 0.00 0.00 94 1009.1
20260506081625 76 360 0.0 0.0 0.00 0.00 0.00 93 1009.5
20260506081122 76 360 0.0 0.0 0.00 0.00 0.00 93 1009.5
20260506080601 76 360 0.0 0.0 0.00 0.00 0.00 94 1009.5
20260506073520 76 360 0.0 0.0 0.00 0.00 0.00 94 1009.8
20260506073016 76 360 0.0 0.0 0.00 0.00 0.00 94 1009.8
20260506072514 76 360 0.0 0.0 0.00 0.00 0.00 93 1009.8
20260506072011 76 360 0.0 0.0 0.00 0.00 0.00 93 1009.8
20260506071449 76 360 0.0 0.0 0.00 0.00 0.00 93 1010.2
20260506070926 76 360 0.0 0.0 0.00 0.00 0.00 93 1010.2
20260506070424 76 360 0.0 0.0 0.00 0.00 0.00 93 1010.2